RYR7CV EIDW-LFOB

Flight info

Callsign RYR7CV
Flight time 1h 2m
Altitude 33000
Route ENDEQ1E ENDEQ Q36 EPOXI L15 KEPAD L151 MID Y803 SFD/N0351F230 M605 XIDIL/N0332F190 M605 PETAX J150 VELOL
Aircraft B38M/M-SADE3FGILRWY/SB1

Departure

Time 2026-04-20 19:16
Airport Dublin Airport (EIDW)

Arrival

Time 2026-04-20 20:18
Airport Beauvais-Tillé airport (LFOB)
Time Latitude Longitude Altitude Speed Heading
2026-04-20 18:34 53.43086 -6.24568 215 ft 0 kts 185°
2026-04-20 19:03 53.43100 -6.24566 219 ft 2 kts 186°
2026-04-20 19:03 53.43116 -6.24563 218 ft 2 kts 187°
2026-04-20 19:03 53.43132 -6.24560 213 ft 2 kts 188°
2026-04-20 19:03 53.43149 -6.24555 213 ft 2 kts 191°
2026-04-20 19:04 53.43165 -6.24549 217 ft 2 kts 197°
2026-04-20 19:04 53.43180 -6.24539 215 ft 2 kts 214°
2026-04-20 19:04 53.43189 -6.24518 213 ft 2 kts 264°
2026-04-20 19:04 53.43190 -6.24508 213 ft 0 kts 272°
2026-04-20 19:07 53.43190 -6.24511 213 ft 1 kts 274°
2026-04-20 19:07 53.43192 -6.24560 213 ft 9 kts 275°
2026-04-20 19:07 53.43183 -6.24693 216 ft 13 kts 253°
2026-04-20 19:08 53.43189 -6.24858 213 ft 15 kts 276°
2026-04-20 19:08 53.43210 -6.25266 216 ft 15 kts 268°
2026-04-20 19:08 53.43165 -6.25398 213 ft 11 kts 179°
2026-04-20 19:09 53.43113 -6.25367 215 ft 12 kts 157°
2026-04-20 19:09 53.43064 -6.25332 217 ft 3 kts 156°
2026-04-20 19:09 53.43036 -6.25312 216 ft 6 kts 156°
2026-04-20 19:09 53.42984 -6.25273 219 ft 10 kts 156°
2026-04-20 19:10 53.42909 -6.25219 213 ft 13 kts 156°
2026-04-20 19:10 53.42834 -6.25187 217 ft 10 kts 206°
2026-04-20 19:10 53.42793 -6.25256 217 ft 8 kts 226°
2026-04-20 19:10 53.42759 -6.25314 215 ft 8 kts 225°
2026-04-20 19:11 53.42697 -6.25420 215 ft 15 kts 225°
2026-04-20 19:11 53.42611 -6.25566 213 ft 19 kts 225°
2026-04-20 19:11 53.42513 -6.25735 213 ft 21 kts 225°
2026-04-20 19:11 53.42402 -6.25921 216 ft 24 kts 225°
2026-04-20 19:12 53.42289 -6.26134 213 ft 25 kts 242°
2026-04-20 19:12 53.42274 -6.26433 213 ft 27 kts 276°
2026-04-20 19:12 53.42292 -6.26761 213 ft 29 kts 275°
2026-04-20 19:12 53.42309 -6.27077 221 ft 23 kts 275°
2026-04-20 19:13 53.42324 -6.27357 217 ft 25 kts 275°
2026-04-20 19:13 53.42341 -6.27661 213 ft 27 kts 275°
2026-04-20 19:13 53.42359 -6.27988 213 ft 29 kts 275°
2026-04-20 19:13 53.42376 -6.28295 220 ft 21 kts 275°
2026-04-20 19:14 53.42390 -6.28555 213 ft 24 kts 275°
2026-04-20 19:14 53.42406 -6.28833 213 ft 22 kts 276°
2026-04-20 19:14 53.42396 -6.29024 213 ft 16 kts 236°
2026-04-20 19:14 53.42312 -6.29075 219 ft 9 kts 173°
2026-04-20 19:15 53.42248 -6.29034 215 ft 11 kts 118°
2026-04-20 19:15 53.42236 -6.28893 220 ft 15 kts 95°
2026-04-20 19:15 53.42216 -6.28532 216 ft 61 kts 95°
2026-04-20 19:15 53.42157 -6.27453 215 ft 122 kts 95°
2026-04-20 19:16 53.42061 -6.25776 357 ft 155 kts 96°
2026-04-20 19:16 53.41951 -6.23947 969 ft 159 kts 95°
2026-04-20 19:16 53.41852 -6.22086 1650 ft 161 kts 95°
2026-04-20 19:16 53.41749 -6.20154 2183 ft 177 kts 95°
2026-04-20 19:17 53.41630 -6.17969 2592 ft 199 kts 95°
2026-04-20 19:17 53.41497 -6.15529 3012 ft 221 kts 95°
2026-04-20 19:17 53.41349 -6.12868 3600 ft 233 kts 95°
2026-04-20 19:17 53.41200 -6.10156 4412 ft 237 kts 97°
2026-04-20 19:18 53.41041 -6.07308 4924 ft 254 kts 97°
2026-04-20 19:18 53.40917 -6.04297 5588 ft 261 kts 91°
2026-04-20 19:18 53.41073 -6.01243 6339 ft 266 kts 85°
2026-04-20 19:18 53.41289 -5.98153 7078 ft 269 kts 85°
2026-04-20 19:19 53.41510 -5.95024 7808 ft 272 kts 85°
2026-04-20 19:19 53.41735 -5.91847 8556 ft 276 kts 85°
2026-04-20 19:19 53.41963 -5.88626 9188 ft 282 kts 84°
2026-04-20 19:19 53.42195 -5.85356 9988 ft 282 kts 84°
2026-04-20 19:20 53.42428 -5.82054 10615 ft 291 kts 83°
2026-04-20 19:20 53.42665 -5.78574 10899 ft 310 kts 83°
2026-04-20 19:20 53.42914 -5.74881 11175 ft 326 kts 83°
2026-04-20 19:20 53.43173 -5.71044 11648 ft 333 kts 83°
2026-04-20 19:21 53.43432 -5.67168 12262 ft 337 kts 83°
2026-04-20 19:21 53.43693 -5.63258 12924 ft 336 kts 83°
2026-04-20 19:21 53.43952 -5.59347 13499 ft 341 kts 83°
2026-04-20 19:21 53.44217 -5.55336 13870 ft 349 kts 83°
2026-04-20 19:22 53.44483 -5.51283 14393 ft 351 kts 83°
2026-04-20 19:22 53.44489 -5.47190 14878 ft 353 kts 93°
2026-04-20 19:22 53.44348 -5.43061 15284 ft 356 kts 92°
2026-04-20 19:22 53.44236 -5.38893 15744 ft 359 kts 91°
2026-04-20 19:23 53.44135 -5.34700 16486 ft 361 kts 91°
2026-04-20 19:23 53.44041 -5.30471 17116 ft 366 kts 91°
2026-04-20 19:23 53.43948 -5.26190 17756 ft 369 kts 91°
2026-04-20 19:23 53.43854 -5.21863 18370 ft 373 kts 91°
2026-04-20 19:24 53.43756 -5.17497 18899 ft 377 kts 91°
2026-04-20 19:24 53.43621 -5.13157 19418 ft 379 kts 91°
2026-04-20 19:24 53.43482 -5.08735 19916 ft 382 kts 92°
2026-04-20 19:24 53.43343 -5.04268 20370 ft 386 kts 92°
2026-04-20 19:25 53.43199 -4.99708 20831 ft 389 kts 92°
2026-04-20 19:25 53.43055 -4.95201 21278 ft 393 kts 92°
2026-04-20 19:25 53.42905 -4.90551 21719 ft 396 kts 92°
2026-04-20 19:25 53.42756 -4.85979 22144 ft 400 kts 92°
2026-04-20 19:26 53.42600 -4.81234 22572 ft 404 kts 92°
2026-04-20 19:26 53.42445 -4.76577 22967 ft 407 kts 92°
2026-04-20 19:26 53.42284 -4.71828 23365 ft 410 kts 92°
2026-04-20 19:26 53.42121 -4.67024 23754 ft 414 kts 92°
2026-04-20 19:27 53.41953 -4.62193 24098 ft 416 kts 92°
2026-04-20 19:27 53.41785 -4.57354 24490 ft 416 kts 92°
2026-04-20 19:27 53.41613 -4.52483 24773 ft 420 kts 92°
2026-04-20 19:27 53.41438 -4.47587 25063 ft 423 kts 92°
2026-04-20 19:28 53.41259 -4.42656 25350 ft 425 kts 92°
2026-04-20 19:28 53.41078 -4.37692 25614 ft 428 kts 92°
2026-04-20 19:28 53.40893 -4.32696 25887 ft 431 kts 92°
2026-04-20 19:28 53.40705 -4.27666 26154 ft 433 kts 92°
2026-04-20 19:29 53.40513 -4.22617 26405 ft 436 kts 92°
2026-04-20 19:29 53.40319 -4.17544 26651 ft 438 kts 92°
2026-04-20 19:29 53.40122 -4.12436 26891 ft 440 kts 92°
2026-04-20 19:29 53.39921 -4.07304 27163 ft 441 kts 92°
2026-04-20 19:30 53.39719 -4.02171 27401 ft 443 kts 92°
2026-04-20 19:30 53.39513 -3.97005 27615 ft 446 kts 92°
2026-04-20 19:30 53.39302 -3.91816 27829 ft 447 kts 92°
2026-04-20 19:30 53.39088 -3.86602 28025 ft 449 kts 92°
2026-04-20 19:31 53.38872 -3.81369 28224 ft 451 kts 92°
2026-04-20 19:31 53.38653 -3.76117 28414 ft 453 kts 92°
2026-04-20 19:31 53.38430 -3.70839 28607 ft 455 kts 92°
2026-04-20 19:31 53.38110 -3.65555 28781 ft 458 kts 101°
2026-04-20 19:32 53.37081 -3.60521 29016 ft 459 kts 114°
2026-04-20 19:32 53.35844 -3.55573 29196 ft 461 kts 112°
2026-04-20 19:32 53.34605 -3.50634 29445 ft 462 kts 113°
2026-04-20 19:32 53.33195 -3.45790 29591 ft 463 kts 125°
2026-04-20 19:33 53.31178 -3.41633 29838 ft 462 kts 133°
2026-04-20 19:33 53.29070 -3.37541 29955 ft 466 kts 132°
2026-04-20 19:33 53.26941 -3.33450 30167 ft 467 kts 133°
2026-04-20 19:33 53.24792 -3.29365 30335 ft 469 kts 133°
2026-04-20 19:34 53.22633 -3.25281 30503 ft 470 kts 133°
2026-04-20 19:34 53.20463 -3.21187 30661 ft 472 kts 133°
2026-04-20 19:34 53.18280 -3.17078 30723 ft 476 kts 133°
2026-04-20 19:34 53.16083 -3.12947 30885 ft 477 kts 133°
2026-04-20 19:35 53.13876 -3.08807 31052 ft 478 kts 133°
2026-04-20 19:35 53.11670 -3.04675 31226 ft 478 kts 133°
2026-04-20 19:35 53.09462 -3.00545 31463 ft 477 kts 133°
2026-04-20 19:35 53.07255 -2.96424 31632 ft 477 kts 133°
2026-04-20 19:36 53.05043 -2.92300 31765 ft 479 kts 133°
2026-04-20 19:36 53.02819 -2.88162 31917 ft 479 kts 133°
2026-04-20 19:36 53.00598 -2.84037 32057 ft 480 kts 133°
2026-04-20 19:36 52.98366 -2.79898 32196 ft 481 kts 133°
2026-04-20 19:37 52.96126 -2.75750 32282 ft 484 kts 134°
2026-04-20 19:37 52.91598 -2.67388 32433 ft 489 kts 134°
2026-04-20 19:37 52.89319 -2.63190 32554 ft 490 kts 134°
2026-04-20 19:38 52.87039 -2.58996 32711 ft 491 kts 134°
2026-04-20 19:38 52.84755 -2.54803 32879 ft 491 kts 134°
2026-04-20 19:38 52.82468 -2.50612 33112 ft 490 kts 134°
2026-04-20 19:38 52.79988 -2.46815 33252 ft 484 kts 147°
2026-04-20 19:39 52.77183 -2.43781 33291 ft 482 kts 148°
2026-04-20 19:39 52.71635 -2.37577 33282 ft 484 kts 149°
2026-04-20 19:40 52.66008 -2.31381 33303 ft 487 kts 149°
2026-04-20 19:40 52.60373 -2.25201 33298 ft 486 kts 149°
2026-04-20 19:41 52.54737 -2.19041 33307 ft 486 kts 149°
2026-04-20 19:41 52.49097 -2.12895 33271 ft 487 kts 150°
2026-04-20 19:42 52.43434 -2.06744 33293 ft 493 kts 150°
2026-04-20 19:42 52.37675 -2.00506 33298 ft 493 kts 150°
2026-04-20 19:43 52.31990 -1.94370 33307 ft 491 kts 150°
2026-04-20 19:43 52.26293 -1.88240 33270 ft 491 kts 150°
2026-04-20 19:44 52.20551 -1.82082 33287 ft 496 kts 150°
2026-04-20 19:44 52.14785 -1.75917 33306 ft 496 kts 151°
2026-04-20 19:45 52.09018 -1.69770 33310 ft 496 kts 151°
2026-04-20 19:45 52.03249 -1.63626 33281 ft 495 kts 151°
2026-04-20 19:46 51.97471 -1.57512 33280 ft 497 kts 151°
2026-04-20 19:46 51.91681 -1.51403 33266 ft 496 kts 151°
2026-04-20 19:47 51.85892 -1.45311 33280 ft 497 kts 151°
2026-04-20 19:47 51.80092 -1.39227 33266 ft 497 kts 151°
2026-04-20 19:48 51.74281 -1.33148 33273 ft 499 kts 152°
2026-04-20 19:48 51.68457 -1.27074 33263 ft 498 kts 152°
2026-04-20 19:49 51.62634 -1.21021 33268 ft 498 kts 152°
2026-04-20 19:49 51.56808 -1.14983 33244 ft 498 kts 152°
2026-04-20 19:50 51.50973 -1.08955 33274 ft 500 kts 152°
2026-04-20 19:50 51.45124 -1.02931 33267 ft 499 kts 152°
2026-04-20 19:51 51.39275 -0.96926 33265 ft 499 kts 152°
2026-04-20 19:51 51.33422 -0.90935 33260 ft 500 kts 152°
2026-04-20 19:52 51.27555 -0.84948 33266 ft 501 kts 152°
2026-04-20 19:52 51.21675 -0.78966 33256 ft 501 kts 152°
2026-04-20 19:53 51.15796 -0.73004 33274 ft 501 kts 152°
2026-04-20 19:53 51.09919 -0.67060 33251 ft 501 kts 152°
2026-04-20 19:54 51.04597 -0.59896 33251 ft 509 kts 127°
2026-04-20 19:54 51.00741 -0.50405 33245 ft 512 kts 123°
2026-04-20 19:55 50.97599 -0.42422 33275 ft 513 kts 123°
2026-04-20 19:55 50.93844 -0.32823 33266 ft 512 kts 123°
2026-04-20 19:56 50.90082 -0.23229 33267 ft 513 kts 123°
2026-04-20 19:56 50.85699 -0.12099 33248 ft 511 kts 123°
2026-04-20 19:57 50.82539 -0.04103 33150 ft 511 kts 123°
2026-04-20 19:57 50.80652 0.00660 32916 ft 509 kts 123°
2026-04-20 19:57 50.78790 0.05352 32378 ft 503 kts 123°
2026-04-20 19:57 50.76897 0.10031 31475 ft 507 kts 128°
2026-04-20 19:58 50.74510 0.14102 30571 ft 505 kts 145°
2026-04-20 19:58 50.71795 0.17576 30080 ft 499 kts 144°
2026-04-20 19:58 50.69146 0.21039 29692 ft 490 kts 145°
2026-04-20 19:58 50.66520 0.24425 29136 ft 486 kts 145°
2026-04-20 19:59 50.63912 0.27761 28510 ft 482 kts 145°
2026-04-20 19:59 50.61314 0.31076 28026 ft 477 kts 145°
2026-04-20 19:59 50.58752 0.34339 27516 ft 472 kts 145°
2026-04-20 19:59 50.56202 0.37581 26922 ft 470 kts 145°
2026-04-20 20:00 50.53669 0.40799 26400 ft 466 kts 145°
2026-04-20 20:00 50.51149 0.43994 25900 ft 463 kts 145°
2026-04-20 20:00 50.48654 0.47154 25412 ft 459 kts 144°
2026-04-20 20:00 50.46172 0.50292 24862 ft 458 kts 144°
2026-04-20 20:01 50.43692 0.53424 24327 ft 456 kts 144°
2026-04-20 20:01 50.41226 0.56533 23817 ft 453 kts 144°
2026-04-20 20:01 50.38778 0.59616 23259 ft 450 kts 144°
2026-04-20 20:01 50.36356 0.62662 22777 ft 445 kts 144°
2026-04-20 20:02 50.33952 0.65682 22258 ft 441 kts 144°
2026-04-20 20:02 50.31571 0.68669 21791 ft 436 kts 144°
2026-04-20 20:02 50.29225 0.71608 21395 ft 430 kts 144°
2026-04-20 20:02 50.26899 0.74518 20947 ft 426 kts 144°
2026-04-20 20:03 50.24596 0.77396 20510 ft 422 kts 143°
2026-04-20 20:03 50.22308 0.80251 20071 ft 419 kts 143°
2026-04-20 20:03 50.20042 0.83076 19638 ft 416 kts 143°
2026-04-20 20:03 50.17893 0.86074 19127 ft 415 kts 132°
2026-04-20 20:04 50.16024 0.89470 18747 ft 411 kts 131°
2026-04-20 20:04 50.14154 0.92815 18324 ft 407 kts 131°
2026-04-20 20:04 50.12294 0.96125 17856 ft 404 kts 131°
2026-04-20 20:04 50.10449 0.99402 17423 ft 400 kts 131°
2026-04-20 20:05 50.08642 1.02606 16968 ft 398 kts 131°
2026-04-20 20:05 50.06794 1.05880 16436 ft 397 kts 131°
2026-04-20 20:05 50.04915 1.09027 15729 ft 399 kts 136°
2026-04-20 20:05 50.02934 1.12015 14915 ft 401 kts 136°
2026-04-20 20:06 50.00961 1.15025 14138 ft 394 kts 135°
2026-04-20 20:06 49.99027 1.17994 13292 ft 387 kts 135°
2026-04-20 20:06 49.97132 1.20910 12463 ft 380 kts 135°
2026-04-20 20:06 49.95272 1.23770 11648 ft 373 kts 135°
2026-04-20 20:07 49.93440 1.26585 10952 ft 365 kts 135°
2026-04-20 20:07 49.91673 1.29299 10526 ft 350 kts 135°
2026-04-20 20:07 49.89998 1.31868 10305 ft 340 kts 135°
2026-04-20 20:07 49.88334 1.34418 10007 ft 331 kts 135°
2026-04-20 20:08 49.86729 1.36876 9643 ft 317 kts 134°
2026-04-20 20:08 49.85188 1.39231 9289 ft 305 kts 134°
2026-04-20 20:08 49.83690 1.41519 8948 ft 302 kts 134°
2026-04-20 20:08 49.82198 1.43796 8607 ft 300 kts 134°
2026-04-20 20:09 49.80716 1.46058 8250 ft 299 kts 133°
2026-04-20 20:09 49.79251 1.48290 7894 ft 290 kts 133°
2026-04-20 20:09 49.77828 1.50456 7461 ft 285 kts 133°
2026-04-20 20:09 49.76420 1.52598 6954 ft 283 kts 133°
2026-04-20 20:10 49.75026 1.54718 6585 ft 280 kts 133°
2026-04-20 20:10 49.73637 1.56826 6236 ft 279 kts 133°
2026-04-20 20:10 49.72255 1.58924 5900 ft 278 kts 133°
2026-04-20 20:10 49.70877 1.61014 5571 ft 277 kts 133°
2026-04-20 20:11 49.69507 1.63088 5240 ft 275 kts 133°
2026-04-20 20:11 49.68150 1.65139 5043 ft 268 kts 133°
2026-04-20 20:11 49.66850 1.67105 5033 ft 254 kts 133°
2026-04-20 20:11 49.65623 1.68960 5033 ft 240 kts 132°
2026-04-20 20:12 49.64464 1.70710 5034 ft 226 kts 132°
2026-04-20 20:12 49.63349 1.72373 5030 ft 221 kts 135°
2026-04-20 20:12 49.62221 1.73959 5061 ft 216 kts 132°
2026-04-20 20:13 49.60298 1.77368 5026 ft 208 kts 124°
2026-04-20 20:13 49.59446 1.79134 4996 ft 201 kts 122°
2026-04-20 20:13 49.58652 1.80870 4978 ft 196 kts 121°
2026-04-20 20:13 49.57882 1.82599 4771 ft 194 kts 121°
2026-04-20 20:14 49.57137 1.84304 4480 ft 190 kts 120°
2026-04-20 20:14 49.56411 1.85973 4222 ft 186 kts 120°
2026-04-20 20:14 49.55694 1.87624 3966 ft 185 kts 119°
2026-04-20 20:14 49.54981 1.89267 3706 ft 184 kts 120°
2026-04-20 20:15 49.54275 1.90900 3450 ft 183 kts 119°
2026-04-20 20:15 49.53571 1.92526 3204 ft 183 kts 119°
2026-04-20 20:15 49.52868 1.94151 2940 ft 182 kts 118°
2026-04-20 20:15 49.52169 1.95764 2689 ft 181 kts 118°
2026-04-20 20:16 49.51473 1.97370 2452 ft 180 kts 118°
2026-04-20 20:16 49.50780 1.98968 2203 ft 178 kts 117°
2026-04-20 20:16 49.50099 2.00542 1964 ft 176 kts 117°
2026-04-20 20:16 49.49431 2.02082 1718 ft 169 kts 116°
2026-04-20 20:17 49.48811 2.03511 1522 ft 156 kts 117°
2026-04-20 20:17 49.48222 2.04869 1309 ft 148 kts 118°
2026-04-20 20:17 49.47660 2.06171 1059 ft 145 kts 120°
2026-04-20 20:17 49.47097 2.07467 833 ft 145 kts 120°
2026-04-20 20:18 49.46534 2.08769 644 ft 147 kts 117°
2026-04-20 20:18 49.45959 2.10085 460 ft 149 kts 120°
2026-04-20 20:18 49.45401 2.11378 344 ft 125 kts 124°
2026-04-20 20:18 49.45061 2.12158 335 ft 44 kts 123°
2026-04-20 20:19 49.44996 2.12279 330 ft 7 kts 150°
2026-04-20 20:19 49.44993 2.12310 330 ft 2 kts 38°
2026-04-20 20:19 49.45017 2.12303 332 ft 4 kts 313°
2026-04-20 20:19 49.45036 2.12219 335 ft 14 kts 293°
2026-04-20 20:20 49.45099 2.12073 336 ft 18 kts 304°
2026-04-20 20:20 49.45171 2.11910 338 ft 19 kts 303°
2026-04-20 20:20 49.45248 2.11732 336 ft 22 kts 303°
2026-04-20 20:20 49.45337 2.11527 340 ft 24 kts 304°
2026-04-20 20:21 49.45429 2.11313 353 ft 24 kts 303°
2026-04-20 20:21 49.45523 2.11098 350 ft 24 kts 304°
2026-04-20 20:21 49.45605 2.10910 355 ft 16 kts 304°
2026-04-20 20:21 49.45676 2.10897 358 ft 10 kts 30°
2026-04-20 20:22 49.45744 2.10954 355 ft 12 kts 28°
2026-04-20 20:22 49.45794 2.11020 354 ft 8 kts 93°
2026-04-20 20:22 49.45762 2.11101 356 ft 6 kts 123°
2026-04-20 20:22 49.45775 2.11144 354 ft 4 kts 32°
2026-04-20 20:23 49.45797 2.11166 350 ft 3 kts 33°
2026-04-20 20:23 49.45803 2.11172 356 ft 0 kts 33°